Effective Sunday, March 17, 2024, the National Weather Service National Data Buoy Center will discontinue its Dial-A-Buoy Interactive Voice Response system. For more information, see Service Change Notice 24-06 (PDF).

Station CWCI - Caribou Island Image indicating link to RSS feed of recent meteorological observations for station CWCI

Data from this station are not quality controlled by NDBC


Conditions at CWCI as of
(4:00 am CST)
1000 GMT on 02/25/2024:
     

Click on the graph icon in the table below to see a time series plot of the last five days of that observation.

5-day plot - Wind Direction Wind Direction (WDIR): SW ( 220 deg true )
5-day plot - Wind Speed Wind Speed (WSPD): 24.1 kts
5-day plot - Atmospheric Pressure Atmospheric Pressure (PRES):29.57 in
5-day plot - Air Temperature Air Temperature (ATMP): 33.6 °F
5-day plot - Dew Point Dew Point (DEWP): 26.8 °F
5-day plot -  Wind Speed, Wind Gust and Atmospheric Pressure Combined plot of Wind Speed, Gust, and Air Pressure

Data from this station are not quality controlled by NDBC

Previous observations
TIME
(CST)
5-day plot - Wind Direction
WDIR
 
5-day plot - Wind Speed
WSPD
kts
5-day plot - Wind Gust
GST
kts
5-day plot - Wave Height
WVHT
ft
5-day plot - Dominant Wave Period
DPD
sec
5-day plot - Average Wave Period
APD
sec
5-day plot - Mean Wave Direction
MWD
 
5-day plot - Atmospheric Pressure
PRES
in
5-day plot - Pressure Tendency
PTDY
in
5-day plot - Air Temperature
ATMP
°F
5-day plot - Water Temperature
WTMP
°F
5-day plot - Dew Point
DEWP
°F
5-day plot - Salinity
SAL
psu
5-day plot - Visibility
VIS
nmi
5-day plot - Tide (above MLLW)
TIDE
ft
2024-02-25 03:00 am SW 24.1-----29.59- 33.4- 25.9---
2024-02-25 02:00 am SW 24.1-----29.62- 33.3- 25.3---
2024-02-25 01:00 am SW 24.1-----29.64- 31.3- 24.6---
2024-02-25 12:00 am SW 24.1-----29.67- 31.5- 25.7---
2024-02-24 11:00 pm SW 26.0-----29.68- 31.3- 24.1---
2024-02-24 10:00 pm SW 26.0 34.0----29.72- 31.5- 22.6---
2024-02-24 09:00 pm SW 27.0 32.1----29.72- 31.8- 23.2---
2024-02-24 08:00 pmSSW 27.0-----29.72- 30.9- 21.9---
2024-02-24 07:00 pmSSW 26.0 31.1----29.74- 30.6- 19.9---
2024-02-24 06:00 pmSSW 24.1 28.9----29.77- 30.2- 18.7---
2024-02-24 05:00 pm S 21.0-----29.79- 30.2- 19.2---
2024-02-24 04:00 pm S 21.0-----29.82- 30.7- 19.2---
2024-02-24 03:00 pmSSW 17.1-----29.85- 30.9- 19.6---
2024-02-24 02:00 pmSSW 18.1-----29.90- 29.5- 17.4---
2024-02-24 01:00 pm SW 18.1-----29.92- 29.3- 17.6---
2024-02-24 12:00 pm SW 17.1-----29.95- 26.1- 18.1---
2024-02-24 11:00 amWSW 15.9-----29.97- 25.5- 18.1---
2024-02-24 10:00 amWSW 14.0 20.0----29.98- 25.7- 19.4---
2024-02-24 09:00 am W 13.0 21.0----30.00- 25.5- 18.1---
2024-02-24 08:00 amSSW 6.0-----30.01- 22.8- 16.2---
2024-02-24 07:00 am SE 5.1-----30.01- 19.2- 11.5---
2024-02-24 06:00 amSSE 1.9-----30.03- 18.5- 9.1---
2024-02-24 05:00 amNNE 2.9-----30.03- 16.5- 7.7---
2024-02-24 04:00 amNNE 6.0-----30.03- 16.5- 7.7---